timestamp,surface_pressure_avg,surface_temp_avg,battery_voltage,lat,long
2019-05-02 00:00:00+00:00,294.3414,2.1,12.97,47.84626,-54.09684
2019-05-02 00:10:00+00:00,291.8197,2.1,12.81,47.84626,-54.09684
2019-05-02 00:20:00+00:00,286.993,2.1,12.97,47.84626,-54.09684
2019-05-02 00:30:00+00:00,278.8247,2.0,12.97,47.84626,-54.09684
2019-05-02 00:40:00+00:00,275.2347,2.0,12.97,47.84626,-54.09684
2019-05-02 00:50:00+00:00,272.6481,2.0,12.97,47.84626,-54.09684
2019-05-02 01:00:00+00:00,266.3931,2.0,12.89,47.84626,-54.09684
2019-05-02 01:10:00+00:00,258.4414,2.0,12.81,47.84626,-54.09684
2019-05-02 01:20:00+00:00,253.4097,2.0,12.89,47.84626,-54.09684
2019-05-02 01:30:00+00:00,249.8481,1.7,12.89,47.84626,-54.09684
2019-05-02 01:40:00+00:00,244.218,1.9,12.97,47.84626,-54.09684
2019-05-02 01:50:00+00:00,238.4948,2.0,12.97,47.84626,-54.09684
2019-05-02 02:00:00+00:00,239.4131,2.0,12.89,47.84626,-54.09684
2019-05-02 02:10:00+00:00,234.9081,2.0,12.81,47.84626,-54.09684
2019-05-02 02:20:00+00:00,223.3347,2.0,12.89,47.84626,-54.09684
2019-05-02 02:30:00+00:00,218.4581,1.9,12.89,47.84626,-54.09684
2019-05-02 02:40:00+00:00,226.0914,1.79,12.89,47.84626,-54.09684
2019-05-02 02:50:00+00:00,223.2764,1.84,12.97,47.84626,-54.09684
2019-05-02 03:00:00+00:00,216.1447,1.89,12.81,47.84626,-54.09684
2019-05-02 03:10:00+00:00,216.2564,1.7,12.81,47.84626,-54.09684
2019-05-02 03:20:00+00:00,215.8131,1.67,12.89,47.84626,-54.09684
2019-05-02 03:30:00+00:00,210.9465,1.59,12.89,47.84626,-54.09684
2019-05-02 03:40:00+00:00,208.2148,1.5,12.89,47.84626,-54.09684
2019-05-02 03:50:00+00:00,211.1215,1.4,12.89,47.84626,-54.09684
2019-05-02 04:00:00+00:00,207.3964,1.4,12.81,47.84626,-54.09684
2019-05-02 04:10:00+00:00,204.4281,1.42,12.73,47.84626,-54.09684
2019-05-02 04:20:00+00:00,206.1831,1.49,12.81,47.84626,-54.09684
2019-05-02 04:30:00+00:00,209.0665,1.5,12.89,47.84626,-54.09684
2019-05-02 04:40:00+00:00,209.3264,1.4,12.89,47.84626,-54.09684
2019-05-02 04:50:00+00:00,208.3098,1.37,12.89,47.84626,-54.09684
2019-05-02 05:00:00+00:00,211.8181,1.3,12.81,47.84626,-54.09684
2019-05-02 05:10:00+00:00,216.9498,1.3,12.73,47.84626,-54.09684
2019-05-02 05:20:00+00:00,221.2598,1.3,12.81,47.84626,-54.09684
2019-05-02 05:30:00+00:00,224.6081,1.31,12.81,47.84626,-54.09684
2019-05-02 05:40:00+00:00,224.4848,1.42,12.89,47.84626,-54.09684
2019-05-02 05:50:00+00:00,227.2314,1.4,12.89,47.84626,-54.09684
2019-05-02 06:00:00+00:00,233.8114,1.3,12.81,47.84626,-54.09684
2019-05-02 06:10:00+00:00,237.9898,1.36,12.73,47.84626,-54.09684
2019-05-02 06:20:00+00:00,240.4815,1.4,12.81,47.84626,-54.09684
2019-05-02 06:30:00+00:00,245.0081,1.4,12.81,47.84626,-54.09684
2019-05-02 06:40:00+00:00,252.8881,1.4,12.81,47.84626,-54.09684
2019-05-02 06:50:00+00:00,259.6148,1.4,12.81,47.84626,-54.09684
2019-05-02 07:00:00+00:00,264.2597,1.4,12.73,47.84626,-54.09684
2019-05-02 07:10:00+00:00,269.2097,1.4,12.65,47.84626,-54.09684
2019-05-02 07:20:00+00:00,277.4331,1.42,12.81,47.84626,-54.09684
2019-05-02 07:30:00+00:00,284.1431,1.38,12.81,47.84626,-54.09684
2019-05-02 07:40:00+00:00,289.9864,1.36,12.81,47.84626,-54.09684
2019-05-02 07:50:00+00:00,297.5247,1.38,12.81,47.84626,-54.09684
2019-05-02 08:00:00+00:00,302.4597,1.36,12.73,47.84626,-54.09684
2019-05-02 08:10:00+00:00,304.6597,1.39,12.65,47.84626,-54.09684
2019-05-02 08:20:00+00:00,308.3814,1.4,12.73,47.84626,-54.09684
2019-05-02 08:30:00+00:00,315.3963,1.4,12.73,47.84626,-54.09684
2019-05-02 08:40:00+00:00,318.2147,1.4,12.81,47.84626,-54.09684
2019-05-02 08:50:00+00:00,322.3263,1.39,12.81,47.84626,-54.09684
2019-05-02 09:00:00+00:00,326.5313,1.33,12.73,47.84626,-54.09684
2019-05-02 09:10:00+00:00,330.3113,1.38,12.65,47.84626,-54.09684
2019-05-02 09:20:00+00:00,331.9746,1.39,12.81,47.84626,-54.09684
2019-05-02 09:30:00+00:00,333.8297,1.4,13.05,47.84626,-54.09684
2019-05-02 09:40:00+00:00,333.7297,1.4,13.37,47.84626,-54.09684
2019-05-02 09:50:00+00:00,331.133,1.37,13.53,47.84626,-54.09684
2019-05-02 10:00:00+00:00,333.5963,1.2,13.68,47.84626,-54.09684
2019-05-02 10:10:00+00:00,336.1564,1.0,13.76,47.84626,-54.09684
2019-05-02 10:20:00+00:00,336.098,1.0,13.76,47.84626,-54.09684
2019-05-02 10:30:00+00:00,333.4563,1.05,13.76,47.84626,-54.09684
2019-05-02 10:40:00+00:00,333.323,1.1,13.92,47.84626,-54.09684
2019-05-02 10:50:00+00:00,334.5547,1.1,14.0,47.84626,-54.09684
2019-05-02 11:00:00+00:00,333.1531,1.1,13.92,47.84626,-54.09684
2019-05-02 11:10:00+00:00,329.048,1.07,13.92,47.84626,-54.09684
2019-05-02 11:20:00+00:00,325.2346,1.08,14.08,47.84626,-54.09684
2019-05-02 11:30:00+00:00,323.8279,1.09,14.24,47.84626,-54.09684
2019-05-02 11:40:00+00:00,321.9497,1.09,14.24,47.84626,-54.09684
2019-05-02 11:50:00+00:00,317.0163,1.05,14.4,47.84626,-54.09684
2019-05-02 12:00:00+00:00,309.513,1.07,14.32,47.84626,-54.09684
2019-05-02 12:10:00+00:00,303.5447,1.1,14.8,47.84626,-54.09684
2019-05-02 12:20:00+00:00,303.513,1.1,14.64,47.84626,-54.09684
2019-05-02 12:30:00+00:00,300.0114,1.16,14.72,47.84626,-54.09684
2019-05-02 12:40:00+00:00,293.3314,1.1,14.64,47.84626,-54.09684
2019-05-02 12:50:00+00:00,289.0147,1.01,14.8,47.84626,-54.09684
2019-05-02 13:00:00+00:00,284.8497,1.0,14.96,47.84626,-54.09684
2019-05-02 13:10:00+00:00,275.8947,1.21,14.48,47.84626,-54.09684
2019-05-02 13:20:00+00:00,269.6381,1.3,14.64,47.84626,-54.09684
2019-05-02 13:30:00+00:00,265.8614,1.3,14.64,47.84626,-54.09684
2019-05-02 13:40:00+00:00,261.4264,1.0,14.56,47.84626,-54.09684
2019-05-02 13:50:00+00:00,252.2498,1.0,14.64,47.84626,-54.09684
2019-05-02 14:00:00+00:00,246.6464,1.17,14.48,47.84626,-54.09684
2019-05-02 14:10:00+00:00,242.6281,1.29,14.32,47.84626,-54.09684
2019-05-02 14:20:00+00:00,236.0431,1.2,14.64,47.84626,-54.09684
2019-05-02 14:30:00+00:00,227.0781,1.0,14.64,47.84626,-54.09684
2019-05-02 14:40:00+00:00,223.1764,1.01,14.88,47.84626,-54.09684
2019-05-02 14:50:00+00:00,220.8831,1.1,15.6,47.84626,-54.09684
2019-05-02 15:00:00+00:00,215.5998,1.0,14.56,47.84626,-54.09684
2019-05-02 15:10:00+00:00,212.7598,1.0,14.56,47.84626,-54.09684
2019-05-02 15:20:00+00:00,209.4748,1.0,14.88,47.84626,-54.09684
2019-05-02 15:30:00+00:00,202.6064,1.01,14.48,47.84626,-54.09684
2019-05-02 15:40:00+00:00,196.6514,1.34,14.88,47.84626,-54.09684
2019-05-02 15:50:00+00:00,198.1498,1.44,14.8,47.84626,-54.09684
2019-05-02 16:00:00+00:00,199.4498,1.41,14.56,47.84626,-54.09684
2019-05-02 16:10:00+00:00,194.2198,1.6,14.72,47.84626,-54.09684
2019-05-02 16:20:00+00:00,195.0198,1.6,14.72,47.84626,-54.09684
2019-05-02 16:30:00+00:00,201.8065,1.5,14.48,47.84626,-54.09684
2019-05-02 16:40:00+00:00,205.8065,1.49,14.64,47.84626,-54.09684
2019-05-02 16:50:00+00:00,208.1815,1.4,14.48,47.84626,-54.09684
2019-05-02 17:00:00+00:00,210.9298,1.4,14.72,47.84626,-54.09684
2019-05-02 17:10:00+00:00,210.3648,1.5,14.56,47.84626,-54.09684
2019-05-02 17:20:00+00:00,211.5014,1.6,14.64,47.84626,-54.09684
2019-05-02 17:30:00+00:00,217.8248,1.6,14.64,47.84626,-54.09684
2019-05-02 17:40:00+00:00,220.9781,1.52,14.48,47.84626,-54.09684
2019-05-02 17:50:00+00:00,224.7948,1.66,14.56,47.84626,-54.09684
2019-05-02 18:00:00+00:00,231.4364,1.6,14.48,47.84626,-54.09684
2019-05-02 18:10:00+00:00,236.8748,1.54,14.48,47.84626,-54.09684
2019-05-02 18:20:00+00:00,240.5414,1.6,14.48,47.84626,-54.09684
2019-05-02 18:30:00+00:00,243.4248,1.75,14.48,47.84626,-54.09684
2019-05-02 18:40:00+00:00,248.3297,1.9,14.48,47.84626,-54.09684
2019-05-02 18:50:00+00:00,255.3148,1.9,14.4,47.84626,-54.09684
2019-05-02 19:00:00+00:00,262.0714,1.5,14.32,47.84626,-54.09684
2019-05-02 19:10:00+00:00,270.9147,1.36,14.24,47.84626,-54.09684
2019-05-02 19:20:00+00:00,278.9014,1.85,14.32,47.84626,-54.09684
2019-05-02 19:30:00+00:00,283.433,1.31,14.32,47.84626,-54.09684
2019-05-02 19:40:00+00:00,286.8997,1.5,14.32,47.84626,-54.09684
2019-05-02 19:50:00+00:00,294.2864,1.54,14.32,47.84626,-54.09684
2019-05-02 20:00:00+00:00,303.243,1.6,14.24,47.84626,-54.09684
2019-05-02 20:10:00+00:00,305.7197,1.7,14.08,47.84626,-54.09684
2019-05-02 20:20:00+00:00,312.1246,1.7,14.24,47.84626,-54.09684
2019-05-02 20:30:00+00:00,317.7081,1.68,14.24,47.84626,-54.09684
2019-05-02 20:40:00+00:00,319.4813,1.69,14.24,47.84626,-54.09684
2019-05-02 20:50:00+00:00,322.2563,1.7,14.24,47.84626,-54.09684
2019-05-02 21:00:00+00:00,331.038,1.6,14.08,47.84626,-54.09684
2019-05-02 21:10:00+00:00,336.1163,1.6,14.0,47.84626,-54.09684
2019-05-02 21:20:00+00:00,335.1147,1.66,14.0,47.84626,-54.09684
2019-05-02 21:30:00+00:00,337.603,1.7,14.0,47.84626,-54.09684
2019-05-02 21:40:00+00:00,342.738,1.7,14.0,47.84626,-54.09684
2019-05-02 21:50:00+00:00,342.9847,1.7,14.0,47.84626,-54.09684
2019-05-02 22:00:00+00:00,339.3113,1.7,13.84,47.84626,-54.09684
2019-05-02 22:10:00+00:00,340.4397,1.68,13.68,47.84626,-54.09684
2019-05-02 22:20:00+00:00,344.0129,1.68,13.68,47.84626,-54.09684
2019-05-02 22:30:00+00:00,344.398,1.7,13.6,47.84626,-54.09684
2019-05-02 22:40:00+00:00,345.6462,1.7,13.6,47.84626,-54.09684
2019-05-02 22:50:00+00:00,348.9946,1.7,13.53,47.84626,-54.09684
2019-05-02 23:00:00+00:00,350.2712,1.68,13.44,47.84626,-54.09684
2019-05-02 23:10:00+00:00,345.5896,1.7,13.29,47.84626,-54.09684
2019-05-02 23:20:00+00:00,343.2446,1.7,13.29,47.84626,-54.09684
2019-05-02 23:30:00+00:00,342.1697,1.7,13.21,47.84626,-54.09684
2019-05-02 23:40:00+00:00,338.293,1.7,13.21,47.84626,-54.09684
2019-05-02 23:50:00+00:00,335.9429,1.7,13.21,47.84626,-54.09684
